Greenville, AL

2:54 PM CDT on September 29, 2016 (GMT -0500)
Greenville Municipal

Weather History for KPRN - July, 2013

Change the Weather History Date:

Monday, July 15, 2013

  Actual Average Record
Temperature  
Mean Temperature 80 °F -  
Max Temperature 87 °F 91 °F 102 °F (1980)
Min Temperature 73 °F 69 °F 56 °F (1967)
Cooling Degree Days 15    
Growing Degree Days 30 (Base 50)    
Moisture  
Dew Point 71 °F    
Average Humidity 83    
Maximum Humidity 94    
Minimum Humidity 55    
Precipitation  
Precipitation 0.16 in - - ()
Sea Level Pressure  
Sea Level Pressure 30.14 in    
Wind  
Wind Speed 7 mph (ESE)    
Max Wind Speed 15 mph    
Max Gust Speed 30 mph    
Visibility 9 miles    
Events Rain , Thunderstorm    
Averages and records for this station are not official NWS values.
T = Trace of Precipitation, MM = Missing Value Source: NWS Daily Summary

Daily Weather History Graph

Daily Weather History Graph

Search for Another Location

Airport or City:

Trip Planner

Search our weather history database for the weather conditions in past years. The results will help you decide how hot, cold, wet, or windy it might be!

Date:

Astronomy

Jul. 15, 2013 Rise Set
Actual Time 5:51 AM CDT 7:53 PM CDT
Civil Twilight 5:24 AM CDT 8:20 PM CDT
Nautical Twilight 4:50 AM CDT 8:53 PM CDT
Astronomical Twilight 4:14 AM CDT 9:29 PM CDT
Moon 12:40 PM CDT (7/15) No Moon Set
Length of Visible Light 14h 56m
Length of Day
14h 01m
Waxing Crescent, 45% of the Moon is Illuminated
Jul 15
Waxing Crescent
Jul 15
First Quarter
Jul 22
Full
Jul 29
Last Quarter
Aug 6
New

Hourly Weather History & Observations

Time (CDT) Temp. Heat Index Dew Point Humidity Pressure Visibility Wind Dir Wind Speed Gust Speed Precip Events Conditions
12:39 AM 73.4 °F - 71.6 °F 94% 30.08 in 10.0 mi ESE 5.8 mph - 0.01 in   Mostly Cloudy
12:56 AM 73.9 °F - 72.0 °F 93% 30.06 in 10.0 mi ESE 3.5 mph - 0.01 in   Mostly Cloudy
1:43 AM 73.4 °F - 71.6 °F 94% 30.09 in 10.0 mi East 5.8 mph - N/A   Scattered Clouds
1:56 AM 73.9 °F - 72.0 °F 93% 30.07 in 10.0 mi ESE 4.6 mph - N/A   Clear
2:56 AM 73.9 °F - 72.0 °F 93% 30.08 in 8.0 mi ESE 4.6 mph - N/A   Partly Cloudy
3:11 AM 73.4 °F - 71.6 °F 94% 30.10 in 8.0 mi East 6.9 mph - N/A   Mostly Cloudy
3:42 AM 73.4 °F - 71.6 °F 94% 30.10 in 8.0 mi East 5.8 mph - N/A   Overcast
3:56 AM 73.9 °F - 72.0 °F 93% 30.09 in 9.0 mi ESE 5.8 mph - N/A   Mostly Cloudy
4:38 AM 73.4 °F - 71.6 °F 94% 30.11 in 10.0 mi ESE 6.9 mph - N/A   Mostly Cloudy
4:56 AM 73.0 °F - 71.1 °F 93% 30.11 in 10.0 mi East 4.6 mph - N/A   Partly Cloudy
5:22 AM 73.4 °F - 71.6 °F 94% 30.13 in 9.0 mi SE 3.5 mph - N/A   Scattered Clouds
5:32 AM 73.4 °F - 71.6 °F 94% 30.13 in 9.0 mi ESE 4.6 mph - N/A   Mostly Cloudy
5:56 AM 73.0 °F - 71.1 °F 93% 30.13 in 8.0 mi East 5.8 mph - N/A   Overcast
6:27 AM 73.4 °F - 71.6 °F 94% 30.15 in 10.0 mi East 6.9 mph - N/A   Mostly Cloudy
6:56 AM 73.9 °F - 71.1 °F 91% 30.15 in 10.0 mi East 9.2 mph - N/A   Overcast
7:14 AM 73.4 °F - 71.6 °F 94% 30.17 in 10.0 mi East 6.9 mph - N/A   Overcast
7:44 AM 75.2 °F - 71.6 °F 89% 30.17 in 10.0 mi Variable 5.8 mph - N/A   Overcast
7:56 AM 75.0 °F - 72.0 °F 90% 30.16 in 10.0 mi East 10.4 mph - N/A   Overcast
8:48 AM 75.2 °F - 71.6 °F 89% 30.18 in 10.0 mi ESE 11.5 mph - N/A   Overcast
8:56 AM 75.9 °F - 71.1 °F 85% 30.17 in 10.0 mi ESE 6.9 mph - N/A   Overcast
9:16 AM 77.0 °F - 71.6 °F 83% 30.19 in 10.0 mi ESE 11.5 mph 16.1 mph N/A   Overcast
9:27 AM 77.0 °F - 71.6 °F 83% 30.19 in 10.0 mi ESE 15.0 mph 19.6 mph N/A   Overcast
9:37 AM 77.0 °F - 71.6 °F 83% 30.19 in 10.0 mi ESE 9.2 mph - N/A   Overcast
9:56 AM 78.1 °F - 71.1 °F 79% 30.18 in 10.0 mi ESE 10.4 mph - N/A   Overcast
10:51 AM 82.4 °F 87.2 °F 71.6 °F 70% 30.20 in 10.0 mi ESE 11.5 mph 18.4 mph N/A   Scattered Clouds
10:56 AM 82.0 °F 86.3 °F 71.1 °F 69% 30.18 in 10.0 mi East 11.5 mph - N/A   Scattered Clouds
11:21 AM 82.4 °F 86.3 °F 69.8 °F 66% 30.19 in 10.0 mi East 8.1 mph 16.1 mph N/A   Mostly Cloudy
11:32 AM 82.4 °F 86.3 °F 69.8 °F 66% 30.19 in 10.0 mi East 11.5 mph 18.4 mph N/A   Mostly Cloudy
11:56 AM 82.0 °F 85.9 °F 70.0 °F 67% 30.17 in 10.0 mi East 6.9 mph - N/A   Mostly Cloudy
12:56 PM 86.0 °F 91.5 °F 71.1 °F 61% 30.16 in 10.0 mi East 10.4 mph - N/A   Mostly Cloudy
1:56 PM 86.0 °F 90.7 °F 70.0 °F 59% 30.13 in 10.0 mi East 10.4 mph - N/A   Scattered Clouds
2:56 PM 84.9 °F 89.4 °F 70.0 °F 61% 30.12 in 10.0 mi SE 9.2 mph 18.4 mph N/A   Mostly Cloudy
3:56 PM 87.1 °F 91.3 °F 69.1 °F 55% 30.11 in 10.0 mi ESE 5.8 mph - N/A   Partly Cloudy
4:56 PM 87.1 °F 91.3 °F 69.1 °F 55% 30.09 in 10.0 mi East 9.2 mph - N/A   Partly Cloudy
5:56 PM 87.1 °F 91.3 °F 69.1 °F 55% 30.11 in 10.0 mi ENE 5.8 mph - N/A   Clear
6:32 PM 80.6 °F 83.9 °F 69.8 °F 70% 30.16 in 10.0 mi ENE 12.7 mph 29.9 mph N/A Thunderstorm Thunderstorm
6:56 PM 75.9 °F - 72.0 °F 87% 30.15 in 10.0 mi East 5.8 mph - 0.00 in Rain , Thunderstorm Light Thunderstorms and Rain
7:05 PM 77.0 °F - 71.6 °F 83% 30.17 in 10.0 mi ENE 4.6 mph - 0.00 in Rain , Thunderstorm Light Thunderstorms and Rain
7:18 PM 75.2 °F - 71.6 °F 89% 30.16 in 1.5 mi Calm Calm - 0.10 in Rain , Thunderstorm Heavy Thunderstorms and Rain
7:28 PM 75.2 °F - 71.6 °F 89% 30.16 in 3.0 mi East 3.5 mph - 0.13 in Rain , Thunderstorm Light Thunderstorms and Rain
7:56 PM 75.0 °F - 72.0 °F 90% 30.17 in 10.0 mi SE 5.8 mph - 0.14 in Rain , Thunderstorm Light Thunderstorms and Rain
8:03 PM 75.2 °F - 71.6 °F 89% 30.17 in 10.0 mi SE 3.5 mph - 0.00 in Rain Light Rain
8:56 PM 73.9 °F - 72.0 °F 93% 30.14 in 10.0 mi East 4.6 mph - 0.01 in   Clear
9:56 PM 73.0 °F - 71.1 °F 93% 30.16 in 10.0 mi East 5.8 mph - N/A   Clear
10:56 PM 73.0 °F - 71.1 °F 93% 30.17 in 10.0 mi East 5.8 mph - N/A   Clear
11:56 PM 73.0 °F - 71.1 °F 93% 30.17 in 10.0 mi East 4.6 mph - N/A   Clear